Regional Weather Roundup
Issued by NWS

Home | Current Version | Previous Version | Graphics & Text | Print | Product List | Glossary On
Versions: 1 2 3 4 5 6 7 8 9 10 11 12 13 14 15 16 17 18 19 20 21 22 23 24 25 26 27 28 29 30 31 32 33 34 35 36 37 38 39 40 41 42 43 44 45 46 47 48 49 50
000
ASUS43 KDTX 260201
RWRMI
MICHIGAN HOURLY REGIONAL WEATHER ROUNDUP
NATIONAL WEATHER SERVICE DETROIT/PONTIAC MI
900 PM EST SUN JAN 25 2015

NOTE: "FAIR" INDICATES FEW OR NO CLOUDS BELOW 12,000 FEET WITH NO
SIGNIFICANT WEATHER AND/OR OBSTRUCTION TO VISIBILITY.

MIZ047>049-052>055-059>063-066>070-074>076-081>083-260300-
SOUTHEAST LOWER MICHIGAN

CITY           SKY/WX    TMP DP  RH WIND       PRES   REMARKS
ADRIAN         MOCLDY    20   8  60 NE16      29.94R WCI   6
ALMA           CLOUDY    17  11  75 NE12      30.03S WCI   5
ANN ARBOR      CLOUDY    19   9  65 NE12      29.96R WCI   7
BAD AXE        FLURRIES  16  13  87 NE6       30.04S WCI   8
CARO           MOCLDY    17  10  76 NE5       30.03R WCI  10
DETROIT CITY   CLOUDY    19   3  49 NE12      29.99S WCI   7
DETROIT        CLOUDY    19   8  62 NE10      29.98R WCI   7
FLINT          MOCLDY    18   9  68 NE12      30.01R WCI   5
GROSSE ILE     CLOUDY    18   9  68 NE14      29.96S WCI   4
HILLSDALE      CLOUDY    21   7  56 NE10      29.90R WCI   9
HOWELL         MOCLDY    16   8  71 NE9       29.98R WCI   4

CITY           SKY/WX    TMP DP  RH WIND       PRES   REMARKS
JACKSON        CLOUDY    19   6  57 NE10G17   29.94R WCI   7
LAMBERTVILLE   CLOUDY    21  10  63 NE13      29.94S WCI   9
LANSING        FAIR      17  10  74 NE13      29.99S WCI   4
LAPEER         FAIR      13   9  85 N3        30.00S
MASON          PTCLDY    17   8  70 NE13G20   29.98R WCI   3
MONROE         CLOUDY    19   9  63 NE10G20   29.94S WCI   8
MT. CLEMENS    CLOUDY    18   8  64 NE8       29.97S WCI   8
PONTIAC        CLOUDY    17   8  67 NE13      29.96R WCI   4
PORT HOPE        N/A     20  13  74 NE16G23   30.04F WCI   6
PORT HURON     MOCLDY    16   9  73 NE8       30.00S WCI   5
TRI CITIES     CLOUDY    19  10  68 NE16      30.04S WCI   4
TROY           CLOUDY    20  10  63 NE14      30.00R WCI   7
SAGINAW HB     MOCLDY    19  12  73 NE9       30.04S WCI   9
$$
MIZ043>046-050>051-056>058-064>065-071>073-077>080-260300-
SOUTHWEST LOWER MICHIGAN

CITY           SKY/WX    TMP DP  RH WIND       PRES   REMARKS
BATTLE CREEK   PTCLDY    22   6  50 NE12      29.94S WCI  10
BENTON HARBOR  PTCLDY    21  13  71 NE6       29.96S WCI  13
BIG RAPIDS     CLEAR     15   5  63 CALM      30.01R
COLDWATER      CLOUDY    22  10  62 NE13      29.92R WCI   9
FREMONT        FAIR      15   3  59 NE3       30.01S
HOLLAND        PTCLDY    20  10  65 NE9       30.00R WCI   9
GRAND RAPIDS   PTCLDY    18  10  71 NE14      30.00R WCI   4
IONIA          FAIR      19  11  73 NE13G18   30.00R WCI   5
KALAMAZOO      MOCLDY    21  12  68 NE9       29.95S WCI  11
LUDINGTON      CLEAR     16   4  59 NE6       30.07R WCI   7
MARSHALL       MOCLDY    19   6  56 NE8       29.94S WCI   9
MOUNT PLEASANT MOCLDY    16   8  70 NE7       30.03S WCI   6
MUSKEGON       PTCLDY    20   7  57 NE7       30.03R WCI  11
SOUTH HAVEN    PTCLDY    21  12  67 NE9       29.98R WCI  11
$$
MIZ016>042-260300-
NORTHERN LOWER MICHIGAN

CITY           SKY/WX    TMP DP  RH WIND       PRES   REMARKS
ALPENA         PTCLDY     2  -2  83 CALM      30.10S
BEAVER ISLAND  CLEAR     -3  -7  84 CALM      30.11R
BELLAIRE       CLEAR      4   0  86 CALM      30.11R
CADILLAC       CLEAR      4  -3  74 CALM      30.00R
CHARLEVOIX     CLEAR     10   4  76 E7        30.13R WCI  -1
FRANKFORT      CLEAR     13   8  80 NE3       30.08S
GAYLORD        PTCLDY     6   1  80 NE3       30.03R
GRAYLING       PTCLDY     0  -5  78 CALM      30.05R
HARBOR SPRINGS PTCLDY     4  -1  79 N3        30.10R
HOUGHTON LAKE  PTCLDY     8   0  69 NE5       30.03R WCI   0
MANISTEE       CLEAR     10   1  67 CALM      30.07R
OSCODA         FLURRIES  14   9  80 N7        30.07R WCI   4
PELLSTON       PTCLDY    -4  -8  83 CALM      30.11S
ROGERS CITY    PTCLDY     9   3  77 CALM      30.11R
TRAVERSE CITY  CLEAR      8   3  80 CALM      30.07R
$$
MIZ007>008-015-260300-
EASTERN UPPER MICHIGAN

CITY           SKY/WX    TMP DP  RH WIND       PRES   REMARKS
KINROSS        MOCLDY    -2  -6  84 CALM      30.11R
MACKINAC ISLAN PTCLDY     6  -1  72 NE3       30.11R
S. S. MARIE    MOCLDY     5  -5  63 NE5       30.11R WCI  -4
MUNISING         N/A      5   0  79 CALM      30.10F
$$
MIZ004>006-011>014-085-260300-
CENTRAL UPPER MICHIGAN

CITY           SKY/WX    TMP DP  RH WIND       PRES   REMARKS
MANISTIQUE     PTCLDY     6  -2  71 NE6       30.11R WCI  -5
ESCANABA       CLEAR     14   5  67 NE6       30.09S WCI   5
MENOMINEE      CLEAR      9   5  85 CALM      30.08R
SAWYER-GWINN   CLEAR      7   5  92 CALM      30.06R
$$
MIZ001>003-009>011-084-260300-
WESTERN UPPER MICHIGAN

CITY           SKY/WX    TMP DP  RH WIND       PRES   REMARKS
IRON MOUNTAIN  PTCLDY     5   0  79 NW3       30.05R
HOUGHTON       PTCLDY     1  -2  87 SE3       30.04F
COPPER HARBOR    N/A      9   2  73 W6        30.09F WCI  -1
IRONWOOD       PTCLDY     5   1  85 CALM      29.99F
$$

ABBREVIATIONS USED IN REMARKS
   TC - TEMPERATURE IN CELSIUS
  WCI - WIND CHILL INDEX
   HX - HEAT INDEX
  VSB - VISIBILITY




USA.gov is the U.S. government's official web portal to all federal, state and local government web resources and services.